Tracking 31027 objects as of 19-Jul-2025
HD Live streaming from Space Station
objects crossing your sky now

KAISTSAT 4

Track KAISTSAT 4 now!
10-day predictions
KAISTSAT 4 is classified as:


NORAD ID: 27945
Int'l Code: 2003-042G
Perigee: 669.0 km
Apogee: 683.8 km
Inclination: 98.3 °
Period: 98.1 minutes
Semi major axis: 7047 km
RCS: 0.503 m2 (medium)
Launch date: September 27, 2003
Source: South Korea (SKOR)
Launch site: PLESETSK MISSILE AND SPACE COMPLEX (PKMTR)

Turkey's first earth observation satellite; part of international Disaster Monitoring Constellation (DMC).
Your satellite tracking list
STARLINK-5088
Track 1 satellite(s)




NASA's NSSDC Master Catalog

Two Line Element Set (TLE):
1 27945U 03042G   25199.39169676  .00000283  00000-0  59072-4 0  9999
2 27945  98.3473 356.0317 0010519 310.8112  49.2179 14.67427054165071
Source of the keplerian elements: AFSPC